Regional Weather Roundup
Issued by NWS State College, PA

Home | Current Version | Previous Version | Text Only | Print | Product List | Glossary Off
Versions: 1 2 3 4 5 6 7 8 9 10 11 12 13 14 15 16 17 18 19 20 21 22 23 24 25 26 27 28 29 30 31 32 33 34 35 36 37 38 39 40 41 42 43 44 45 46 47 48 49 50

000
ASUS41 KCTP 301310
RWRCTP

REGIONAL WEATHER ROUNDUP
NATIONAL WEATHER SERVICE STATE COLLEGE PA
900 AM EDT SAT MAY 30 2015

Note: "fair" indicates few or no clouds below 12,000 feet with no
significant weather and/or obstructions to visibility.

* = STATION THAT DOES NOT REPORT PRECIPITATION /E.G. RAIN...SNOW...ETC/
    THUNDER OR FOG.

PAZ002>004-007>009-013>016-020>023-029>032-301400-
WESTERN PENNSYLVANIA

CITY           SKY/WX    TMP DP  RH WIND       PRES   REMARKS
ERIE           MOSUNNY   76  64  66 S12       30.05R
MEADVILLE      MOSUNNY   71  64  78 S7        30.10S
FRANKLIN*      MOSUNNY   70  63  78 SW9       30.14R
NEW CASTLE     FAIR      74  67  78 CALM      30.12S
BEAVER COUNTY  PTSUNNY   72  64  78 S6        30.13R
BUTLER*        MOSUNNY   72  64  78 SW6       30.15S
PITTSBURGH INT PTSUNNY   72  63  73 SW10      30.13R
PITTSBURGH     MOSUNNY   73  61  65 S9        30.13S
INDIANA*       SUNNY     72  64  78 SW8       30.19S
LATROBE        PTSUNNY   75  64  69 SW16      30.17R
WASHINGTON CO* MOSUNNY   72  64  78 S7        30.16S
$$

PAZ004>006-010>012-017>019-024>028-033>037-041-042-045-046-049>053-301400-
CENTRAL PENNSYLVANIA

CITY           SKY/WX    TMP DP  RH WIND       PRES   REMARKS
BRADFORD       PTSUNNY   69  62  78 SW9       30.15R
DUBOIS         MOSUNNY   72  64  76 SW8       30.15S
CLEARFIELD     MOSUNNY   71  65  81 SW5       30.16S
JOHNSTOWN      CLOUDY    71  61  70 S9        30.19S
ALTOONA        MOSUNNY   74  63  68 SW10      30.18S
STATE COLLEGE  SUNNY     73  64  73 S12       30.16S
WILLIAMSPORT   PTSUNNY   76  66  71 VRB3      30.13S
SELINSGROVE    PTSUNNY   76  66  71 S12G17    30.17S
FT INDIANTOWN  CLOUDY    72  67  82 S5        30.19S
CAPITAL CITY   PTSUNNY   74  66  76 SW8       30.18S
HARRISBURG     MOSUNNY   75  66  73 SW8       30.17S
YORK           SUNNY     74  67  78 S6        30.18S
$$

PAZ038>040-043-044-047-048-054-055-060>062-067>071-301400-
EASTERN PENNSYLVANIA

CITY           SKY/WX    TMP DP  RH WIND       PRES   REMARKS
SCRANTON       PTSUNNY   74  65  73 SW3       30.18R
MOUNT POCONO   CLOUDY    68  63  84 SW12      30.22F
ALLENTOWN      CLOUDY    72  65  78 S7        30.21R
QUAKERTOWN*    CLOUDY    68  66  94 SW6       30.22S
READING        PTSUNNY   76  66  71 S8        30.19S
LANCASTER      PTSUNNY   74  66  76 S9        30.19S
COATESVILLE    CLOUDY    72  70  94 SW5       30.22S
POTTSTOWN      CLOUDY    70  67  90 S3        30.22S
BLUE BELL      CLOUDY    73  68  83 S7        30.21S
DOYLESTOWN     CLOUDY    70  32  24 SW7       30.21S
WILLOW GROVE   NOT AVBL
NORTH PHILA    CLOUDY    73  65  75 SW7       30.23R
PHILADELPHIA   CLOUDY    75  67  76 SW9       30.21S
$$


USA.gov is the U.S. government's official web portal to all federal, state and local government web resources and services.